www.pogodaiklimat.ru

Погода и климат >> Архив погоды >> Пакистан >> Islamabad


АРХИВ ПОГОДЫ в Islamabad

Время (UTC), дата Ветер
(напр.,м/с)
 
Видим.   Явления Облачность Т
(С)
Тd
(С)
f
(%)
Тe
(С)
Тes
(С)
Комфортность P
(гПа)
Po
(гПа)
Тmin
(С)
Tmax
(С)
R
(мм)
R24
(мм)
S
(см)
21 8.12 штиль 0 <100 м мгла 5/0
[Ac trans]
+10.5 +6.5 76 +10 +10 тепло 1018.7 958.9
00 9.12 штиль 0 н/о дымка 6/0
[Ac trans]
+10.0 +7.0 82 +9 +9 тепло 1017.6 957.8
03 9.12 штиль 0 500 м дымка 5/0
[Ac trans]
+9.0 +5.9 81 +8 +9 по сезону 1018.6 958.6 +8.2
06 9.12 З 2 4000 м мгла 4/0
[Ac trans]
+16.0 +7.4 57 +16 +20 по сезону 1017.2 958.5
09 9.12 штиль 0 4000 м мгла 9/0
[Ac trans Ci fib]
+18.5 +7.2 48 +19 +23 тепло 1013.8 955.9
12 9.12 СЗ 1 2000 м мгла 9/3 1000 м
[Sc Ac trans]
+17.5 +7.1 50 +19 +19 тепло 1013.7 955.5 +19.5
15 9.12 В 4 н/о мгла 9/4 1000 м
[Sc Ac trans]
+15.5 +7.9 61 +15 +15 тепло 1014.4 955.7
21 9.12 СВ 2 н/о слабый дождь 9/6 1000 м
[Cb calv Ac trans]
+11.5 +8.6 82 +10 +10 тепло 1016.8 957.2 2
00 10.12 СВ 4 н/о слабый дождь 9/6 1000 м
[Cb calv Ac trans]
+10.5 +9.6 94 +8 +8 тепло 1016.1 956.4 12
03 10.12 СВ 2 2000 м слабый дождь 9/6 1000 м
[Cb calv As op]
+11.0 +9.1 88 +10 +10 по сезону 1016.0 956.5 +10.1 2
06 10.12 СВ 3 4000 м слабый дождь 9/9 300 м
[Cb calv Ac lent]
+11.0 +9.1 88 +9 +9 холодно 1018.6 959.1 11
15 10.12 СВ 2 4000 м мгла 9/9 1000 м
[Sc diur, vesp Ac trans]
+10.0 +7.0 82 +9 +9 прохладно 1020.2 960.3
18 10.12 штиль 0 <100 м мгла 8/3 1000 м
[Sc Ac trans]
+9.0 +7.0 87 +8 +8 по сезону 1020.8 960.4
21 10.12 штиль 0 <100 м дымка 8/8 1000 м
[Sc Ac trans]
+7.5 +6.5 93 +7 +7 по сезону 1020.4 959.8
00 11.12 штиль 0 н/о дымка 5/1 1000 м
[Sc Ac trans]
+7.0 +5.9 93 +6 +6 по сезону 1020.3 959.6
03 11.12 штиль 0 2000 м дымка 9/3 1000 м
[Sc diur, vesp Ac trans]
+7.5 +6.5 93 +7 +7 прохладно 1021.1 960.5 +6.1
06 11.12 штиль 0 2000 м мгла 9/0
[Ac trans Ci sp]
+13.0 +9.3 78 +13 +18 по сезону 1021.0 961.5
09 11.12 З 3 4000 м мгла 9/0
[Ac trans Ci sp]
+15.0 +9.5 70 +14 +17 по сезону 1018.4 959.5
12 11.12 ЮЗ 5 4000 м мгла 9/4 1000 м
[Sc As op]
+14.0 +9.4 74 +12 +12 холодно 1017.8 958.8 +15.5
18 11.12 штиль 0 н/о мгла {дождь} 9/4 1000 м
[Cb calv As op]
+10.5 +7.6 82 +10 +10 по сезону 1019.2 959.3 3
21 11.12 С 1 <100 м мгла 6/0
[Ac trans]
+11.0 +5.9 71 +11 +11 тепло 1018.2 958.5
00 12.12 штиль 0 н/о дымка 4/0
[Ac trans]
+9.0 +7.0 87 +8 +8 тепло 1019.2 959.1 5
03 12.12 штиль 0 2000 м дымка ясно +8.0 +7.0 93 +7 +8 прохладно 1021.1 960.7 +7.0
06 12.12 штиль 0 4000 м мгла 9/1 1000 м
[Sc diur, vesp Ac trans]
+13.0 +9.3 78 +13 +16 по сезону 1021.3 961.8
09 12.12 ЮЗ 4 10 км 4/4 1000 м
[Cu med, cong]
+17.0 +8.7 58 +17 +18 тепло 1019.2 960.6
12 12.12 10 км н/о +15.0 +8.4 65 +16 +16 по сезону 1019.5 960.6 +18.1
15 12.12 ЮВ 2 <100 м мгла 6/4 1000 м
[Sc diur, vesp Ac trans]
+11.5 +7.6 77 +11 +11 по сезону 1022.0 962.2
18 12.12 штиль 0 <100 м мгла 4/1 1000 м
[Sc diur, vesp Ac trans]
+10.0 +7.0 82 +9 +9 по сезону 1023.0 963.0
21 12.12 штиль 0 н/о мгла ясно +8.5 +5.3 80 +8 +8 по сезону 1023.4 963.0
00 13.12 штиль 0 <100 м дымка ясно +7.0 +5.9 93 +6 +6 по сезону 1023.8 963.0
03 13.12 СВ 2 500 м дымка ясно +7.0 +5.9 93 +5 +6 прохладно 1025.3 964.4 +6.0
06 13.12 ЮЗ 2 4000 м мгла 1/0 1000 м
[]
+13.5 +4.2 53 +13 +19 по сезону 1025.3 965.7
09 13.12 ЮЗ 3 4000 м мгла 1/1 1000 м
[Cu med, cong]
+17.5 +4.5 42 +18 +21 тепло 1021.8 963.1
12 13.12 ЮЗ 2 4000 м мгла ясно +15.0 +7.3 60 +15 +15 по сезону 1021.8 962.7 +19.1
15 13.12 СЗ 3 н/о мгла ясно +11.0 +7.0 76 +9 +9 прохладно 1024.7 954.6
18 13.12 штиль 0 <100 м дымка ясно +9.0 +7.0 87 +8 +8 по сезону 1025.2 951.6
21 13.12 штиль 0 н/о дымка ясно +7.5 +6.5 93 +7 +7 по сезону 1025.5 954.7
00 14.12 штиль 0 <100 м дымка ясно +6.0 +4.9 93 +5 +5 по сезону 1025.8 964.6
03 14.12 штиль 0 1000 м дымка ясно +6.0 +4.9 93 +5 +6 прохладно 1027.7 966.4 +4.5
06 14.12 штиль 0 2000 м мгла ясно +14.0 +4.8 54 +14 +22 по сезону 1027.5 967.9
09 14.12 З 3 1000 м мгла ясно +19.5 +5.8 41 +20 +24 тепло 1024.4 965.6
12 14.12 З 2 4000 м мгла ясно +15.0 +7.3 60 +15 +15 по сезону 1024.7 965.4 +18.5
15 14.12 штиль 0 н/о мгла ясно +11.0 +5.9 71 +11 +11 по сезону 1025.9 965.7
18 14.12 ЮВ 2 н/о дымка ясно +9.0 +5.9 81 +8 +8 по сезону 1026.6 966.1
21 14.12 штиль 0 <100 м дымка ясно +7.5 +5.4 87 +7 +7 по сезону 1025.7 964.9
00 15.12 штиль 0 <100 м дымка ясно +5.0 +4.4 96 +4 +4 по сезону 1025.7 964.4
03 15.12 штиль 0 2000 м дымка ясно +4.0 +2.8 92 +3 +3 холодно 1027.6 965.9 +3.5
06 15.12 штиль 0 н/о мгла ясно +13.5 +5.4 58 +13 +21 по сезону 1025.7 966.4
09 15.12 штиль 0 <100 м мгла ясно +13.5 +5.4 58 +13 +20 по сезону 1025.7 966.4
12 15.12 ЮЗ 1 4000 м мгла ясно +17.0 +5.1 45 +18 +18 тепло 1023.1 964.3 +20.1
15 15.12 ЮЗ 1 <100 м мгла ясно +11.0 +4.7 65 +11 +11 по сезону 1026.0 965.8

 

Местоположение метеостанции Islamabad (Пакистан): широта 33.62 долгота 73.10 высота над уровнем моря 508 м.

В архиве по умолчанию представлена погода в Islamabad за последнюю неделю. Архивные данные за месяц целиком и за предыдущие месяцы, начиная с января 2011 года, Вы можете получить, выбрав интересующий диапазон дат из раскрывающегося списка и нажав кнопку "Ввод!".


*Определитесь, кто Вы:
робот инопланетянин человек

Внимание! Время в таблицах - всемирное. Для получения местного времени необходимо прибавить поправку, которая в Islamabad равна 5 ч.

Смотрите также архив погоды в соседних городах и на ближайших метеорологических станциях:

Погода в Murree (Пакистан) (42 км)
Погода в Kakul (Пакистан) (64 км)
Погода в Balakor (Пакистан) (88 км)
Погода в Jhelum (Пакистан) (96 км)
Погода в Risalpur (Пакистан) (116 км)
Погода в Gulmarg (Jammu and Kashmir, Индия) (129 км)
Погода в Saidu Sharif (Пакистан) (141 км)
Погода в Kupwara (Jammu and Kashmir, Индия) (147 км)
Погода в Peshawar (Пакистан) (147 км)
Погода в Kohat (Пакистан) (155 км)

Пояснения к столбцам:

Ветер - указаны скорость ветра в м/с - средняя за 10 мин, порывы в срок и между сроками (в фигурных скобках) и направление, откуда дует ветер: С - северный, СВ - северо-восточный, В - восточный, ЮВ - юго-восточный, Ю - южный, ЮЗ - юго-западный, З - западный, СЗ - северо-западный.
Видимость - горизонтальная дальность видимости в метрах или километрах. При видимости от 1 до 10 км при отсутствии осадков обычно наблюдается дымка, при ухудшении видимости до 1 км и менее - туман. В сухую погоду видимость может ухудшаться дымом, пылью или мглою.
Явления - указаны атмосферные явления, наблюдавшиеся в срок или в последний час перед сроком; фигурными скобками обозначены явления, наблюдавшиеся между сроками (за 1-3 часа до срока); квадратными скобками обозначены град или гололедные отложения с указанием их диаметра в мм.
Облачность - указаны через наклонную черту общая и нижняя облачность в баллах и высота нижней границы облаков в метрах; квадратными скобками обозначены формы облаков: Ci - перистые, Cs - перисто-слоистые, Cc - перисто-кучевые, Ac - высококучевые, As - высокослоистые, Sc - слоисто-кучевые, Ns - слоисто-дождевые, Cu - кучевые, Cb - кучево-дождевые. Подробнее классификацию облаков см. в Атласе облаков (PDF).
T - Температура воздуха - температура, измеренная на высоте 2 м над землей.
Td - Температура точки росы - температура, при понижении до которой содержащийся в воздухе водяной пар достигнет насыщения.
f - Относительная влажность воздуха - влажноcть воздуха, измеренная на высоте 2 м над землей.
Te - Эффективная температура - температура, которую ощущает одетый по сезону человек в тени. Характеристика душности погоды. При расчете учитывается влияние влажности воздуха и скорости ветра на теплоощущения человека.
Tes - Эффективная температура на солнце - температура, которую ощущает человек, с поправкой на солнечный нагрев. Характеристика знойности погоды. Зависит от высоты солнца над горизонтом, облачности и скорости ветра. Ночью, в пасмурную погоду, а также при ветре 12 м/с и более поправка равна нулю.
P - Атмосферное давление - приведенное к уровню моря атмосферное давление.
Po - Атмосферное давление - измеренное на уровне метеостанции атмосферное давление.
Tmin - Минимальная температура - минимум температуры воздуха на высоте 2 м над землей.
Tmax - Максимальная температура - максимум температуры воздуха на высоте 2 м над землей.
R - Количество осадков - Количество выпавших осадков за период времени, мм. При наведении курсора мыши на число - период времени, за который выпало указанное количество осадков.
R24 - Количество осадков - Количество выпавших осадков за 24 часа, мм.
S - Снежный покров - Высота снежного покрова, см. При наведении курсора мыши на число - состояние снежного покрова и степень покрытия местности в баллах.